METEOSAT-9 (MSG-2)

Last updated on Mon Sep 21 2026 00:02:40 GMT+0000 (Coordinated Universal Time)

1 28912U 05049B 26262.57364397 .00000122 00000+0 00000+0 0 9995 2 28912 9.5708 53.2063 0001874 351.9658 205.6064 1.00277585 7947
UTC large
Height (km)
Speed (km/s)
/
Latitude / Longitude
Inclination (degrees)
Orbital Period (minutes)
Azimuth
Elevation
Range (km)
Doppler Factor

Next 0 passes for location: London (51.5072 / 0.1276)

No passes found over London.
METEOSAT-9 (MSG-2)